Wind_Speed
23 24 25 26 27 27 28 28 28 28 28 29 30 32 34 37 39 39 40 38 38 39 38 40 40 39 38 35 31 26 23 22 22 24 25 28 30 30 32 34 37 39 41
28 28 28 28 29 31 31 31 31 31 31 32 33 36 38 41 44 45 44 41 38 36 34 34 34 34 33 30 24 21 22 23 25 25 27 28 30 31 34 36 39 41 44
32 32 31 30 31 32 33 33 33 34 34 35 36 38 40 44 45 46 42 38 35 31 30 29 31 30 27 24 21 21 23 25 26 28 30 32 35 36 38 40 44 46 49
36 34 33 31 31 31 33 33 34 35 36 37 38 40 42 45 46 43 40 37 31 28 25 25 26 24 23 22 22 24 26 29 30 33 35 38 41 44 47 48 50 51 53
38 36 34 32 32 32 33 34 35 36 38 39 40 42 43 46 46 44 40 33 27 25 23 23 24 23 23 24 26 28 31 33 36 37 40 42 45 48 51 54 56 58 58
38 35 34 32 32 32 33 35 36 38 40 41 42 43 44 44 44 43 39 33 30 27 24 24 25 26 28 29 31 33 36 38 40 42 45 47 50 52 54 56 58 59 60
34 33 32 32 32 33 34 35 37 39 40 42 42 42 41 41 41 40 39 35 32 29 28 30 31 32 33 34 36 38 40 42 44 47 49 51 54 56 58 59 59 60 60
29 28 27 28 30 31 33 35 36 38 40 40 40 39 39 39 40 40 39 37 35 34 33 34 34 35 36 37 40 42 44 46 49 51 53 55 57 58 59 60 60 60 60
23 22 22 23 25 27 30 32 34 36 38 38 38 38 38 39 40 40 40 39 38 37 36 37 38 38 39 41 43 46 48 51 53 55 56 58 59 60 60 60 61 61 60
22 22 22 23 25 27 29 31 33 35 36 37 38 38 39 39 40 40 40 39 38 38 39 40 42 43 44 45 48 50 52 54 56 58 58 59 60 60 60 60 60 60 59
24 25 26 27 28 30 31 33 34 36 37 37 38 39 40 40 40 40 41 41 41 42 42 43 45 46 48 50 52 53 55 56 58 58 59 59 59 59 59 59 59 59 61
25 27 28 30 31 33 34 35 36 37 38 38 39 40 41 42 42 43 44 45 45 46 45 46 48 50 51 53 54 56 56 57 58 58 58 58 58 58 57 57 58 60 61
27 28 30 31 33 34 35 36 37 38 39 39 40 42 43 44 45 47 48 48 49 49 49 50 51 52 54 55 56 56 57 57 58 57 57 57 56 56 57 58 59 60 60
31 32 33 35 36 38 39 40 41 41 42 43 44 45 45 47 49 50 51 52 51 51 51 52 53 54 55 56 56 56 56 56 56 56 55 55 55 56 57 58 59 57 54
37 38 39 40 41 43 43 44 44 45 45 45 46 46 48 50 51 53 53 52 52 53 53 54 55 56 56 56 56 55 55 55 55 55 55 55 55 57 57 56 54 51 46
41 42 44 45 46 46 46 46 46 45 45 46 47 48 50 51 52 52 52 52 52 53 54 55 55 55 55 55 55 55 54 54 54 54 54 55 56 55 53 50 47 42 37
44 44 45 45 45 44 43 42 42 43 44 46 48 50 51 51 51 51 52 53 53 53 54 54 54 54 54 54 54 54 53 53 52 53 54 54 52 49 45 42 38 35 31
40 39 39 40 40 40 40 41 42 43 45 47 49 50 50 51 51 51 52 52 52 52 53 53 54 53 53 53 53 52 52 51 52 52 51 48 45 40 37 33 31 29 29
36 36 37 38 37 38 39 40 42 44 46 48 49 49 49 50 50 50 50 51 51 51 52 52 52 51 50 50 50 50 50 50 50 48 44 40 36 32 28 25 25 25 26
32 34 35 37 39 40 41 42 44 45 46 46 47 47 48 48 49 49 50 50 49 49 49 49 49 48 48 48 49 48 47 46 44 41 37 33 28 24 21 20 20 22 23
33 35 36 38 39 40 41 42 42 43 44 45 46 47 47 48 48 47 47 46 46 46 46 46 46 46 46 46 44 42 40 38 35 33 29 25 20 16 16 17 18 19 19
32 33 35 36 37 38 39 41 42 43 43 44 44 44 43 43 43 43 43 43 43 44 44 44 44 43 42 40 37 35 32 30 28 25 21 17 13 12 14 16 16 16 15
32 33 34 35 36 38 39 39 39 40 40 40 39 39 39 39 40 40 41 41 42 42 41 40 39 37 35 33 30 27 25 23 20 16 12 9 8 10 12 13 13 12 13
31 32 33 34 34 35 35 35 35 35 35 35 36 37 37 38 38 38 38 38 38 37 36 34 33 31 29 27 24 21 19 16 11 8 5 5 6 9 10 10 10 11 12
27 28 29 29 29 29 30 30 30 31 32 34 34 35 36 35 35 35 34 33 32 31 30 28 27 25 23 21 18 16 12 7 4 2 1 2 5 6 7 8 9 11 12
22 22 23 23 24 25 25 27 28 30 31 32 33 33 32 31 30 29 28 27 25 24 22 21 20 18 17 14 11 8 5 4 4 3 2 3 4 6 8 10 11 13 14
Wind_Direction
265 268 270 273 278 281 283 285 287 289 292 295 298 299 299 297 295 295 293 290 284 280 276 273 270 268 267 270 269 275 282 289 292 293 294 292 292 292 292 291 290 289 288
265 269 272 274 275 277 279 279 282 285 286 288 291 294 296 295 296 294 295 291 287 283 278 274 272 272 272 269 275 287 295 295 296 298 300 298 296 296 295 293 292 291 291
265 269 271 272 272 274 275 275 278 280 282 286 290 292 294 294 296 298 297 299 297 287 278 275 273 274 274 280 289 298 301 303 303 303 303 303 302 301 298 297 296 296 295
267 269 270 269 268 269 269 270 274 278 281 285 288 291 292 295 297 300 302 307 307 294 285 278 274 278 285 293 299 301 303 305 305 306 305 304 305 304 304 302 300 298 297
269 269 268 266 264 264 265 267 272 276 279 283 285 289 291 294 298 303 310 315 314 305 294 286 285 289 300 304 304 303 303 303 304 304 304 304 303 302 302 302 302 301 299
268 267 265 263 261 262 262 265 268 272 276 280 283 287 290 294 299 306 311 315 313 308 300 298 298 300 303 304 303 302 301 301 302 302 302 302 301 300 300 300 299 299 298
266 265 263 261 260 259 259 261 265 270 274 278 282 285 288 292 298 304 308 311 310 306 301 301 302 302 302 301 300 299 298 299 300 300 299 299 299 299 299 299 299 298 298
263 261 259 257 256 256 257 259 263 268 272 276 279 282 286 290 296 301 305 307 305 303 299 299 300 300 298 297 296 296 297 298 298 298 298 299 299 300 299 299 299 299 298
259 257 255 253 252 253 255 258 261 265 269 273 277 282 286 291 295 299 303 303 302 299 297 297 297 297 296 295 295 296 296 296 297 298 298 299 300 300 299 300 300 300 299
252 249 250 251 251 253 255 257 260 264 268 272 277 282 285 291 295 299 301 301 300 297 295 295 296 296 295 295 295 295 295 296 297 298 299 300 300 300 300 300 300 300 300
249 249 250 251 253 254 257 259 261 264 268 272 277 282 286 292 296 298 300 299 299 298 297 296 296 295 294 294 294 295 295 296 297 298 299 300 300 301 301 301 301 301 301
254 254 254 255 256 258 260 261 263 266 270 274 279 284 288 293 295 297 299 299 298 298 297 296 295 294 293 293 294 294 295 296 297 299 299 300 300 301 301 302 302 303 303
259 259 260 260 261 262 263 264 266 269 273 277 281 285 289 291 293 296 297 297 298 298 297 295 293 292 292 292 293 294 295 297 298 299 300 301 302 302 302 303 304 305 305
263 265 265 266 266 266 267 268 271 273 276 280 283 286 289 291 292 294 295 295 296 296 295 294 293 292 292 292 293 294 296 297 299 300 301 302 302 303 304 305 305 306 307
266 267 269 270 270 270 270 271 273 275 277 281 284 286 288 290 291 292 293 293 294 293 292 292 291 291 291 292 294 296 297 299 300 301 302 303 304 305 305 306 307 307 308
267 269 271 271 271 270 270 271 273 276 278 281 283 285 288 289 289 290 291 291 291 290 290 289 290 291 292 293 295 297 299 300 301 302 303 304 305 306 307 307 308 309 309
267 269 268 268 269 269 270 271 275 278 280 282 284 286 287 288 288 288 289 289 288 288 288 289 290 291 293 295 297 298 300 301 302 303 304 305 306 307 308 309 309 309 310
262 263 264 267 269 273 276 279 281 281 282 283 284 285 286 286 286 287 287 287 287 288 288 289 291 292 294 296 297 299 300 301 302 304 305 306 307 308 309 309 308 309 311
261 265 270 272 276 279 280 280 280 281 282 283 284 284 285 285 286 286 286 286 287 288 289 290 292 293 294 296 298 299 300 302 303 304 305 307 307 308 308 307 307 310 313
268 270 272 275 278 280 281 281 282 283 284 284 285 285 285 285 286 286 287 287 288 289 290 291 292 294 295 297 298 300 301 302 303 304 305 307 308 308 306 307 310 315 318
271 273 275 277 279 281 282 283 284 285 285 285 285 285 285 286 287 287 288 289 290 291 291 293 294 295 296 297 298 299 300 301 302 304 305 307 308 307 308 312 318 322 325
275 277 278 280 281 283 284 285 286 286 286 286 286 286 286 286 287 288 289 290 291 292 293 294 295 296 297 298 298 298 299 299 301 303 305 306 307 309 315 322 327 331 335
279 280 282 283 285 286 287 288 288 288 287 287 287 287 287 288 289 290 291 292 293 294 295 296 296 296 296 296 296 296 296 297 299 299 300 302 308 317 326 333 338 342 344
282 284 286 287 288 288 289 289 289 288 288 288 289 289 290 291 292 294 294 295 295 296 296 296 295 295 295 295 294 293 293 294 291 286 286 300 320 332 341 350 358 359 357
285 287 288 288 289 290 290 290 291 292 292 293 294 294 295 295 296 296 296 296 296 296 297 297 296 295 294 292 290 289 287 278 255 229 234 327 345 358 11 22 26 24 18
290 291 292 293 294 295 296 297 298 298 298 298 298 298 298 298 297 297 296 296 296 298 299 299 299 298 295 291 284 274 247 189 158 144 96 36 37 47 53 53 48 42 36
Height
5876 5876 5877 5878 5877 5877 5876 5875 5874 5872 5870 5867 5865 5863 5860 5856 5853 5849 5847 5843 5840 5836 5834 5832 5831 5830 5830 5830 5830 5830 5829 5828 5828 5827 5826 5825 5824 5823 5821 5819 5817 5814 5811
5871 5871 5872 5873 5873 5872 5871 5871 5869 5867 5865 5862 5859 5857 5854 5850 5846 5842 5837 5835 5832 5829 5827 5825 5824 5823 5823 5823 5823 5822 5822 5822 5821 5820 5819 5818 5817 5815 5812 5809 5806 5803 5800
5864 5865 5866 5867 5866 5866 5866 5865 5864 5861 5859 5856 5854 5852 5848 5843 5838 5835 5831 5827 5824 5822 5821 5820 5818 5816 5816 5816 5816 5816 5816 5815 5814 5812 5810 5808 5806 5804 5802 5799 5794 5791 5786
5857 5858 5859 5860 5860 5860 5859 5859 5858 5856 5854 5851 5849 5846 5842 5838 5834 5829 5826 5822 5818 5816 5815 5814 5812 5811 5810 5810 5810 5810 5809 5808 5806 5803 5801 5798 5794 5791 5787 5784 5781 5776 5771
5848 5850 5850 5851 5852 5852 5852 5852 5851 5850 5848 5845 5843 5840 5837 5833 5829 5824 5821 5817 5814 5812 5810 5809 5807 5806 5805 5804 5804 5803 5801 5799 5797 5794 5791 5787 5783 5779 5775 5769 5764 5759 5754
5839 5840 5842 5843 5844 5845 5845 5845 5844 5843 5841 5839 5836 5834 5831 5828 5824 5820 5816 5812 5810 5808 5806 5805 5803 5801 5800 5798 5797 5795 5793 5790 5786 5783 5780 5776 5772 5767 5762 5756 5751 5745 5739
5831 5832 5833 5834 5836 5836 5837 5837 5836 5835 5834 5832 5829 5827 5824 5821 5818 5814 5811 5808 5806 5804 5802 5799 5797 5795 5793 5791 5788 5786 5783 5779 5776 5772 5768 5764 5759 5754 5748 5742 5736 5730 5724
5822 5824 5825 5826 5827 5828 5828 5829 5828 5827 5826 5824 5821 5819 5816 5814 5810 5807 5804 5802 5800 5798 5795 5792 5790 5787 5785 5782 5779 5776 5772 5769 5765 5760 5755 5750 5744 5739 5732 5726 5720 5714 5709
5815 5816 5817 5818 5819 5819 5820 5820 5820 5819 5817 5815 5813 5810 5808 5806 5803 5799 5796 5794 5791 5789 5786 5784 5781 5778 5775 5772 5768 5765 5761 5756 5752 5746 5741 5735 5729 5723 5717 5710 5703 5697 5692
5808 5809 5810 5811 5812 5812 5812 5812 5812 5810 5809 5807 5805 5802 5800 5797 5794 5790 5787 5785 5782 5780 5777 5774 5771 5768 5764 5761 5757 5752 5748 5743 5738 5732 5727 5720 5714 5708 5701 5695 5687 5680 5674
5802 5803 5803 5804 5804 5805 5804 5804 5803 5802 5800 5798 5796 5794 5791 5788 5785 5781 5778 5775 5772 5769 5766 5763 5760 5756 5753 5749 5744 5740 5735 5729 5724 5718 5712 5706 5700 5693 5686 5680 5672 5664 5657
5795 5795 5796 5796 5796 5796 5796 5795 5794 5793 5791 5789 5787 5784 5781 5778 5775 5772 5769 5765 5762 5758 5755 5751 5747 5743 5739 5735 5731 5726 5721 5715 5710 5704 5698 5692 5686 5679 5672 5664 5657 5649 5640
5787 5787 5787 5787 5787 5787 5786 5785 5784 5782 5781 5779 5776 5774 5771 5768 5765 5761 5758 5754 5750 5746 5742 5739 5734 5730 5726 5722 5717 5712 5707 5702 5696 5691 5685 5678 5672 5665 5657 5650 5642 5634 5625
5778 5778 5778 5778 5777 5777 5776 5775 5773 5771 5770 5768 5765 5763 5760 5757 5753 5750 5746 5742 5738 5734 5729 5725 5721 5716 5712 5708 5703 5699 5694 5689 5683 5677 5671 5665 5658 5650 5643 5635 5627 5619 5612
5769 5769 5768 5768 5767 5766 5765 5763 5762 5760 5758 5756 5754 5751 5748 5744 5741 5737 5733 5729 5725 5720 5716 5711 5707 5702 5698 5694 5690 5685 5681 5675 5670 5663 5657 5651 5644 5636 5629 5621 5614 5607 5600
5759 5758 5757 5756 5755 5754 5752 5751 5749 5747 5746 5744 5741 5738 5735 5731 5727 5723 5719 5715 5711 5706 5702 5697 5693 5689 5685 5680 5676 5672 5667 5662 5656 5650 5643 5637 5631 5624 5616 5609 5602 5596 5590
5747 5747 5745 5744 5743 5741 5740 5738 5736 5735 5733 5730 5728 5725 5721 5717 5713 5709 5705 5701 5697 5692 5688 5683 5679 5676 5672 5667 5663 5658 5654 5649 5644 5637 5631 5624 5618 5612 5605 5599 5593 5587 5582
5736 5735 5734 5732 5731 5729 5727 5726 5724 5722 5720 5717 5714 5711 5707 5703 5699 5695 5691 5687 5683 5679 5675 5670 5666 5663 5659 5655 5650 5646 5641 5636 5631 5626 5620 5613 5607 5602 5596 5591 5586 5581 5577
5725 5724 5723 5721 5720 5718 5716 5714 5712 5709 5707 5704 5700 5697 5693 5689 5685 5681 5678 5674 5670 5666 5662 5658 5654 5650 5647 5643 5638 5633 5629 5624 5620 5615 5609 5604 5599 5595 5590 5585 5581 5577 5572
5715 5714 5713 5711 5710 5707 5705 5702 5700 5697 5694 5691 5687 5683 5680 5676 5672 5669 5665 5661 5657 5653 5649 5645 5641 5638 5635 5631 5626 5622 5617 5613 5609 5604 5600 5596 5592 5589 5585 5581 5578 5573 5569
5706 5705 5704 5702 5700 5697 5694 5691 5688 5685 5682 5678 5674 5671 5667 5663 5659 5656 5652 5648 5644 5640 5637 5633 5629 5626 5623 5620 5616 5612 5608 5603 5600 5596 5593 5589 5587 5584 5581 5578 5574 5570 5565
5698 5696 5694 5692 5690 5687 5684 5681 5677 5674 5670 5666 5662 5658 5654 5651 5647 5644 5640 5636 5632 5629 5625 5622 5618 5615 5611 5609 5606 5603 5599 5596 5593 5590 5587 5585 5583 5581 5578 5575 5572 5568 5564
5689 5688 5685 5683 5680 5677 5673 5670 5666 5662 5658 5654 5650 5647 5643 5640 5636 5632 5628 5625 5621 5617 5614 5611 5607 5604 5602 5599 5597 5595 5592 5589 5587 5585 5583 5582 5580 5579 5577 5573 5570 5567 5563
5681 5679 5676 5674 5670 5667 5663 5660 5656 5652 5648 5644 5640 5636 5633 5629 5625 5621 5617 5614 5610 5607 5604 5601 5598 5595 5593 5591 5589 5588 5586 5584 5583 5582 5581 5580 5579 5578 5575 5573 5570 5567 5563
5673 5671 5668 5665 5662 5658 5654 5651 5647 5642 5638 5634 5630 5626 5622 5618 5614 5611 5608 5604 5601 5598 5595 5592 5589 5587 5585 5583 5582 5581 5581 5580 5580 5580 5580 5580 5579 5577 5575 5573 5571 5568 5564
5666 5664 5661 5658 5655 5651 5647 5643 5638 5634 5629 5624 5620 5616 5612 5609 5605 5602 5599 5596 5594 5591 5588 5585 5583 5580 5579 5577 5576 5577 5577 5578 5579 5580 5580 5580 5579 5578 5576 5574 5572 5569 5566